Stations météo

Publicité
Paris/Le Bourget, France (7150): Température de l'air & dewpoint: 13.04.2019 02:00:00 - 19.04.2019 02:00:00 (CEST)Paris/Le Bourget, France (7150): Température de l'air 5cm: 13.04.2019 02:00:00 - 19.04.2019 02:00:00 (CEST)Paris/Le Bourget, France (7150): Température de l'air -20cm & Température de l'air -100cm: 13.04.2019 02:00:00 - 19.04.2019 02:00:00 (CEST)Paris/Le Bourget, France (7150): Vitesse du vent & gusts: 13.04.2019 02:00:00 - 19.04.2019 02:00:00 (CEST)Paris/Le Bourget, France (7150): Direction du vent: 13.04.2019 02:00:00 - 19.04.2019 02:00:00 (CEST)Paris/Le Bourget, France (7150): reduced air pressure: 13.04.2019 02:00:00 - 19.04.2019 02:00:00 (CEST)Paris/Le Bourget, France (7150): visibility: 13.04.2019 02:00:00 - 19.04.2019 02:00:00 (CEST)Paris/Le Bourget, France (7150): Quantités de précipitations: 13.04.2019 02:00:00 - 19.04.2019 02:00:00 (CEST)
Date & Time tt [°C] td [°C] tt 5cm [°C] tt -20cm [°C] tt -100cm [°C] ff [km/h] ff [knt] fx [km/h] fx [knt] dd ppp [hPa] vv [km] rr [mm]
19.04.2019 02:00:00 13,7 5,3 10,6 14,1 10,0 8 5 13 7 N 1021,7 42 0,0
19.04.2019 01:00:00 15,4 5,0 12,2 14,2 9,9 11 6 21 11 N 1021,7 44 0,0
19.04.2019 00:00:00 15,6 4,9 13,0 14,3 9,9 8 5 20 11 NE 1021,5 48 0,0
18.04.2019 23:00:00 16,9 5,2 14,7 14,4 9,9 16 9 23 12 NE 1021,2 46 0,0
18.04.2019 22:00:00 16,8 5,7 14,3 14,4 9,9 14 8 21 11 NE 1020,8 46 0,0
18.04.2019 21:00:00 17,6 5,8 15,4 14,3 9,9 13 7 23 13 NE 1020,3 58 0,0
18.04.2019 20:00:00 20,5 6,4 20,2 14,1 9,9 16 8 31 17 ENE 1019,7 57 0,0
18.04.2019 19:00:00 22,3 6,9 23,3 13,8 9,9 20 11 34 19 E 1019,2 52 0,0
18.04.2019 18:00:00 22,7 7,6 24,6 13,4 9,9 22 12 37 20 ENE 1018,9 44 0,0
18.04.2019 17:00:00 23,0 6,7 26,5 13,0 9,9 18 10 42 23 E 1018,7 28 0,0
18.04.2019 16:00:00 22,9 7,4 26,4 12,6 9,8 21 11 42 23 E 1018,8 14 0,0
18.04.2019 15:00:00 22,6 7,6 26,4 12,2 9,8 26 14 46 25 E 1018,8 10 0,0
18.04.2019 14:00:00 22,6 5,9 25,8 11,8 9,8 29 16 44 24 SE 1018,7 10 0,0
18.04.2019 13:00:00 20,9 7,8 23,9 11,5 9,8 26 14 40 22 ENE 1019,0 9 0,0
18.04.2019 12:00:00 19,2 9,7 21,8 11,3 9,7 23 12 33 18 ENE 1019,3 9 0,0
18.04.2019 11:00:00 17,7 9,8 18,8 11,3 9,7 16 9 28 15 ENE 1019,5 8 0,0
18.04.2019 10:00:00 15,4 9,1 16,7 11,3 9,7 19 11 26 14 ENE 1019,9 12 0,0
18.04.2019 09:00:00 13,7 8,5 10,8 11,4 9,7 14 8 24 13 ENE 1019,8 9 0,0
18.04.2019 08:00:00 10,7 7,8 8,4 11,5 9,7 7 4 12 7 N 1019,7 12 0,0
18.04.2019 07:00:00 10,3 7,2 8,2 11,6 9,7 4 2 17 9 NW 1019,3 15 0,0
18.04.2019 06:00:00 10,8 7,3 9,6 11,8 9,7 14 7 19 11 N 1019,1 16 0,0
18.04.2019 05:00:00 11,1 7,2 9,4 11,9 9,7 5 3 14 8 N 1019,1 23 0,0
18.04.2019 04:00:00 10,9 7,4 9,0 12,0 9,7 4 2 10 5 N 1019,0 22 0,0
18.04.2019 03:00:00 11,0 7,3 8,9 12,2 9,7 3 2 10 5 NNE 1019,2 18 0,0
18.04.2019 02:00:00 11,1 7,2 8,9 12,3 9,7 6 4 15 8 ENE 1019,5 19 0,0
18.04.2019 01:00:00 11,0 7,3 9,8 12,5 9,7 12 6 19 11 ENE 1019,3 18 0,0
18.04.2019 00:00:00 12,5 7,2 11,5 12,6 9,7 16 9 24 13 ENE 1019,0 21 0,0
17.04.2019 23:00:00 12,5 5,9 10,0 12,7 9,7 13 7 20 11 NE 1019,1 39 0,0
17.04.2019 22:00:00 12,8 5,7 11,0 12,7 9,7 13 7 16 9 ENE 1019,1 38 0,0
17.04.2019 21:00:00 13,7 5,3 11,5 12,6 9,6 11 6 25 13 E 1018,8 52 0,0
17.04.2019 20:00:00 16,8 5,4 16,7 12,4 9,7 18 10 31 17 E 1018,3 42 0,0
17.04.2019 19:00:00 17,5 4,8 18,6 12,1 9,7 22 12 33 18 E 1018,3 40 0,0
17.04.2019 18:00:00 18,0 4,9 20,6 11,7 9,6 20 11 35 19 E 1018,5 51 0,0
17.04.2019 17:00:00 18,1 4,6 21,8 11,2 9,7 16 9 34 18 ESE 1018,7 40 0,0
17.04.2019 16:00:00 17,7 5,3 20,8 10,7 9,6 12 7 29 16 ENE 1019,0 36 0,0
17.04.2019 15:00:00 17,4 6,6 21,5 10,3 9,6 11 6 25 14 ENE 1019,7 25 0,0
17.04.2019 14:00:00 16,1 6,2 17,5 9,9 9,6 8 4 21 12 E 1020,1 19 0,0
17.04.2019 13:00:00 14,7 7,0 16,7 9,6 9,6 3 2 17 9 E 1020,5 14 0,0
17.04.2019 12:00:00 14,2 7,0 17,0 9,4 9,6 6 3 18 10 E 1020,7 20 0,0
17.04.2019 11:00:00 13,9 8,1 16,9 9,3 9,6 9 5 16 9 E 1020,8 14 0,0
17.04.2019 10:00:00 11,9 7,8 12,3 9,4 9,6 6 3 13 7 E 1020,6 10 0,0
17.04.2019 09:00:00 9,4 8,6 5,9 9,5 9,6 5 3 9 5 E 1020,8 6 0,0
17.04.2019 08:00:00 5,7 5,1 3,2 9,7 9,6 5 3 7 4 NNE 1020,6 5 0,0
17.04.2019 07:00:00 4,6 3,7 2,7 9,8 9,6 5 3 7 4 ENE 1020,2 0,1 0,0
17.04.2019 06:00:00 5,1 4,1 2,7 10,0 9,6 3 1 6 3 ENE 1019,9 0,2 0,0
17.04.2019 05:00:00 7,1 6,2 3,7 10,1 9,6 5 3 9 5 WSW 1019,6 3,5 0,0
17.04.2019 04:00:00 7,1 6,0 2,4 10,3 9,6 4 2 5 3 SSW 1019,7 1,3 0,0
17.04.2019 03:00:00 8,3 6,9 4,9 10,4 9,6 4 2 6 4 NW 1019,7 6 0,0
17.04.2019 02:00:00 8,8 6,4 5,3 10,4 9,6 4 2 7 4 SW 1019,6 7 0,0
17.04.2019 01:00:00 10,3 7,4 7,9 10,5 9,6 5 3 6 4 WSW 1019,6 9 0,0
17.04.2019 00:00:00 11,0 7,7 9,6 10,5 9,6 5 3 10 5 SW 1019,3 10 0,0
16.04.2019 23:00:00 11,7 7,6 11,1 10,5 9,6 5 3 18 10 W 1019,2 13 0,0
16.04.2019 22:00:00 12,1 7,6 11,4 10,5 9,6 10 6 21 11 W 1018,9 15 0,0
16.04.2019 21:00:00 11,9 7,6 11,5 10,5 9,6 5 3 29 16 WSW 1018,2 14 0,0
16.04.2019 20:00:00 12,6 7,5 11,5 10,5 9,5 14 8 25 14 WSW 1017,6 14 0,0
16.04.2019 19:00:00 13,3 6,4 13,0 10,4 9,6 10 5 21 11 WSW 1017,1 17 0,0
16.04.2019 18:00:00 13,2 6,5 13,1 10,3 9,6 10 6 21 11 SW 1016,7 12 0,0
16.04.2019 17:00:00 13,2 6,5 13,4 10,2 9,6 11 6 21 11 SW 1016,2 12 0,0
16.04.2019 16:00:00 13,2 6,5 13,9 10,1 9,6 11 6 21 11 SW 1016,1 12 0,0
16.04.2019 15:00:00 13,0 5,9 13,5 9,9 9,5 11 6 19 10 WSW 1015,8 11 0,0
16.04.2019 14:00:00 13,0 5,6 14,4 9,8 9,5 11 6 21 11 W 1015,3 11 0,0
16.04.2019 13:00:00 12,8 5,7 14,6 9,7 9,6 8 4 22 12 W 1015,2 10 0,0
16.04.2019 12:00:00 12,3 5,7 13,1 9,6 9,6 13 7 25 14 W 1015,1 9 0,0
16.04.2019 11:00:00 11,8 5,4 12,6 9,6 9,6 13 7 26 14 WSW 1014,9 9 0,0
16.04.2019 10:00:00 11,4 4,8 11,5 9,6 9,6 11 6 23 13 W 1014,3 11 0,0
16.04.2019 09:00:00 11,1 4,3 9,3 9,6 9,6 10 5 17 9 SW 1013,8 13 0,0
16.04.2019 08:00:00 9,2 3,6 6,9 9,7 9,6 2 1 10 5 SSE 1013,1 14 0,0
16.04.2019 07:00:00 7,8 3,5 6,2 9,8 9,6 2 1 5 3 S 1012,5 13 0,0
16.04.2019 06:00:00 8,0 3,5 6,3 9,9 9,6 4 2 6 4 NNW 1012,3 14 0,0
16.04.2019 05:00:00 8,6 3,4 6,9 10,0 9,6 8 4 11 6 N 1012,4 14 0,0
16.04.2019 04:00:00 9,1 3,1 7,0 10,2 9,6 5 3 9 5 NNE 1012,6 16 0,0
16.04.2019 03:00:00 9,4 2,7 7,0 10,3 9,6 4 2 9 5 N 1012,8 18 0,0
16.04.2019 02:00:00 9,6 2,9 7,8 10,4 9,6 9 5 14 8 NE 1012,8 16 0,0
16.04.2019 01:00:00 9,3 3,1 7,3 10,5 9,6 8 5 18 10 E 1013,4 17 0,0
16.04.2019 00:00:00 10,5 3,3 8,5 10,6 9,6 15 8 22 12 ENE 1013,3 17 0,0
15.04.2019 23:00:00 10,1 3,1 8,7 10,6 9,6 13 7 21 11 ENE 1013,2 16 0,0
15.04.2019 22:00:00 11,6 3,1 10,0 10,6 9,6 14 8 18 10 ENE 1013,4 19 0,0
15.04.2019 21:00:00 12,2 2,6 10,1 10,5 9,6 12 6 25 13 ENE 1013,5 19 0,0
15.04.2019 20:00:00 14,8 2,3 14,1 10,3 9,6 16 9 29 15 E 1013,5 20 0,0
15.04.2019 19:00:00 15,7 1,8 15,8 10,0 9,6 21 12 41 22 E 1013,7 20 0,0
15.04.2019 18:00:00 16,4 2,4 19,7 9,6 9,6 26 14 43 23 E 1014,5 21 0,0
15.04.2019 17:00:00 16,0 2,0 19,3 9,2 9,6 27 15 41 22 E 1015,2 20 0,0
15.04.2019 16:00:00 15,7 1,0 19,3 8,8 9,7 22 12 46 25 E 1016,3 14 0,0
15.04.2019 15:00:00 14,8 -0,5 18,4 8,4 9,7 24 13 44 24 E 1017,3 10 0,0
15.04.2019 14:00:00 14,1 1,4 17,4 8,0 9,7 27 15 42 23 ENE 1018,3 9 0,0
15.04.2019 13:00:00 13,3 -0,7 16,6 7,7 9,6 26 14 40 21 ENE 1019,5 8 0,0
15.04.2019 12:00:00 12,4 0,5 14,9 7,5 9,7 24 13 45 24 E 1020,7 8 0,0
15.04.2019 11:00:00 10,4 0,7 12,0 7,5 9,7 22 12 31 17 E 1021,6 7 0,0
15.04.2019 10:00:00 7,6 0,3 7,8 7,6 9,7 12 7 22 12 E 1022,7 8 0,0
15.04.2019 09:00:00 4,6 0,4 1,1 7,7 9,7 14 7 21 11 ENE 1023,0 7 0,0
15.04.2019 08:00:00 2,0 -1,6 -1,0 8,0 9,7 4 2 9 5 NE 1023,2 6 0,0
15.04.2019 07:00:00 1,1 -2,3 -1,4 8,1 9,7 8 5 11 6 ENE 1023,0 5 0,0
15.04.2019 06:00:00 1,4 -2,2 -1,4 8,3 9,7 4 2 9 5 N 1023,2 7 0,0
15.04.2019 05:00:00 1,1 -2,3 -1,3 8,5 9,7 3 2 5 3 NNE 1023,4 8 0,0
15.04.2019 04:00:00 2,0 -2,3 -0,8 8,8 9,7 3 2 4 2 NE 1023,8 9 0,0
15.04.2019 03:00:00 1,9 -2,8 -1,3 8,9 9,7 2 1 6 3 SSW 1024,0 10 0,0
15.04.2019 02:00:00 2,4 -2,7 -0,1 9,1 9,7 5 3 8 5 NNE 1024,5 10 0,0
15.04.2019 01:00:00 2,8 -2,9 -0,2 9,4 9,7 6 4 14 8 NE 1024,8 10 0,0
15.04.2019 00:00:00 3,6 -2,6 1,0 9,5 9,7 8 4 10 5 NE 1024,8 10 0,0
14.04.2019 23:00:00 4,4 -2,7 2,4 9,6 9,7 8 5 14 8 NNE 1024,7 10 0,0
14.04.2019 22:00:00 5,5 -2,4 3,1 9,7 9,7 9 5 18 10 NNE 1024,5 13 0,0
14.04.2019 21:00:00 5,7 -2,7 4,1 9,7 9,7 14 8 29 16 ENE 1023,8 14 0,0
14.04.2019 20:00:00 8,0 -2,9 8,0 9,6 9,7 22 12 30 16 ENE 1023,4 17 0,0
14.04.2019 19:00:00 8,9 -4,3 8,9 9,4 9,7 16 9 32 17 NE 1022,9 19 0,0
14.04.2019 18:00:00 9,0 -5,3 10,4 9,1 9,7 17 9 31 17 NE 1023,0 19 0,0
14.04.2019 17:00:00 8,7 -5,6 10,2 8,8 9,7 14 8 36 19 ENE 1023,2 16 0,0
14.04.2019 16:00:00 9,0 -3,9 10,9 8,5 9,7 16 9 34 18 ENE 1022,7 16 0,0
14.04.2019 15:00:00 8,6 -3,3 9,8 8,2 9,7 21 12 32 18 NE 1023,0 9 0,0
14.04.2019 14:00:00 8,4 -3,5 9,3 7,9 9,7 16 8 33 18 NNE 1023,0 12 0,0
14.04.2019 13:00:00 6,9 -3,9 8,2 7,7 9,8 17 9 31 17 NNE 1023,5 9 0,0
14.04.2019 12:00:00 6,4 -3,0 8,6 7,6 9,8 16 9 29 16 NNE 1023,7 13 0,0
14.04.2019 11:00:00 5,8 -1,4 8,2 7,6 9,8 13 7 23 12 NE 1023,9 15 0,0
14.04.2019 10:00:00 4,1 -1,5 5,8 7,8 9,8 14 8 22 12 NNE 1023,8 11 0,0
14.04.2019 09:00:00 2,0 -1,8 -0,6 7,9 9,8 9 5 15 8 N 1023,6 8 0,0
14.04.2019 08:00:00 -0,5 -2,9 -2,9 8,1 9,8 0 0 4 2 N 1023,5 6 0,0
14.04.2019 07:00:00 -0,1 -2,6 -2,7 8,4 9,8 5 3 10 6 N 1023,2 7 0,0
14.04.2019 06:00:00 -0,4 -2,9 -3,0 8,6 9,8 4 2 7 4 NNW 1023,1 8 0,0
14.04.2019 05:00:00 -0,1 -3,7 -2,3 8,8 9,8 4 2 12 7 NE 1023,3 9 0,0
14.04.2019 04:00:00 1,0 -2,9 -0,5 9,0 9,8 4 2 12 6 N 1023,0 12 0,0
14.04.2019 03:00:00 1,5 -3,2 -0,3 9,3 9,8 8 4 13 7 NNW 1023,2 15 0,0
14.04.2019 02:00:00 2,2 -3,5 0,3 9,5 9,8 6 4 15 8 N 1023,6 18 0,0
14.04.2019 01:00:00 3,0 -3,8 1,8 9,7 9,8 9 5 19 10 N 1023,6 19 0,0
14.04.2019 00:00:00 3,9 -3,9 2,7 9,8 9,8 12 6 21 11 N 1023,5 18 0,0
13.04.2019 23:00:00 4,8 -4,5 2,8 10,0 9,8 9 5 13 7 N 1023,7 21 0,0
13.04.2019 22:00:00 5,5 -4,9 4,2 10,1 9,8 10 5 21 12 N 1023,7 24 0,0
13.04.2019 21:00:00 6,8 -5,6 5,7 10,1 9,8 11 6 25 13 NNE 1023,6 27 0,0
13.04.2019 20:00:00 8,0 -6,6 7,9 10,0 9,8 14 8 29 16 N 1023,3 31 0,0
13.04.2019 19:00:00 8,5 -7,7 8,3 9,8 9,8 18 10 38 20 NNE 1023,4 40 0,0
13.04.2019 18:00:00 9,4 -6,5 10,5 9,5 9,8 20 11 39 21 N 1023,1 37 0,0
13.04.2019 17:00:00 9,4 -7,3 9,6 9,2 9,8 16 9 35 19 N 1023,2 31 0,0
13.04.2019 16:00:00 9,2 -6,7 9,6 8,9 9,8 19 10 38 20 NE 1023,8 23 0,0
13.04.2019 15:00:00 9,2 -4,8 9,7 8,7 9,9 17 9 34 19 NE 1024,1 17 0,0
13.04.2019 14:00:00 8,4 -5,5 9,6 8,4 9,8 18 10 38 21 NNE 1024,3 31 0,0
13.04.2019 13:00:00 7,6 -5,8 8,4 8,2 9,9 19 10 42 23 NNE 1024,7 21 0,0
13.04.2019 12:00:00 7,7 -3,5 10,0 8,2 9,9 21 11 35 19 NNE 1025,3 11 0,0
13.04.2019 11:00:00 6,1 -3,3 8,2 8,2 9,9 24 13 38 20 NNE 1025,3 8 0,0
13.04.2019 10:00:00 4,3 -2,3 5,6 8,3 9,9 16 9 32 17 NNE 1025,3 9 0,0
13.04.2019 09:00:00 2,7 -2,2 0,8 8,5 9,9 13 7 23 12 N 1025,3 9 0,0
13.04.2019 08:00:00 0,9 -2,9 -0,3 8,7 9,9 10 6 18 10 N 1025,0 11 0,0
13.04.2019 07:00:00 0,8 -3,3 -0,1 8,9 9,9 11 6 20 11 N 1024,7 11 0,0
13.04.2019 06:00:00 1,3 -3,4 0,3 9,1 9,9 10 6 19 10 N 1024,6 14 0,0
13.04.2019 05:00:00 1,9 -3,8 -0,4 9,4 10,0 7 4 14 8 N 1024,4 15 0,0
13.04.2019 04:00:00 2,1 -4,2 0,5 9,6 9,9 8 4 16 9 N 1024,3 16 0,0
13.04.2019 03:00:00 2,6 -4,4 0,5 9,9 10,0 7 4 15 8 N 1024,2 15 0,0
13.04.2019 02:00:00 3,1 -4,4 0,6 10,0 9,9 5 3 13 7 NNW 1024,4 20 0,0

tt = Température de l'air
td = dewpoint
tt 5cm = Température de l'air 5cm
tt -20cm = Température de l'air -20cm
tt -100cm = Température de l'air -100cm
ff = Vitesse du vent
fx = gusts
dd = Direction du vent
ppp = reduced air pressure
vv = visibility
rr = Quantités de précipitations

stations d'obs. à proximité